Vorticity
13 7 12 4 6 8 8 9 8 8 7 6 7 9 18 22 15 14 30 28 13 9 4 11 28 39 27 9 17 18 3 5 3 9 8 8 7 3 8 -6 8 0 5 2
1 4 5 6 7 9 8 9 8 8 8 7 7 9 12 18 15 13 18 19 31 20 7 3 2 15 34 31 23 15 19 2 7 4 8 7 8 5 6 8 6 14 0 26
5 2 2 6 8 10 9 10 7 8 9 6 7 5 8 14 18 9 13 21 17 27 33 32 10 4 7 15 28 37 20 11 5 5 5 7 8 7 7 7 11 -5 12 19
8 5 7 5 7 7 10 12 9 6 9 11 8 5 7 13 17 12 7 13 20 13 23 29 25 28 29 25 17 17 32 11 1 9 4 5 7 7 7 4 16 4 2 10
6 11 7 6 4 6 8 10 10 9 8 11 8 7 9 13 15 13 10 10 18 23 8 29 23 12 22 30 48 30 33 31 10 -2 9 4 5 8 4 8 4 10 -2 8
6 11 11 8 7 5 5 7 11 13 10 10 9 9 8 8 12 14 14 11 12 22 29 10 24 19 9 24 21 33 39 45 38 12 4 6 5 6 7 2 2 -2 13 6
3 8 11 12 8 7 6 5 6 12 15 5 5 12 8 8 8 11 15 15 9 16 22 26 13 18 11 10 17 20 25 29 43 35 8 9 5 6 5 4 10 -6 -13 28
2 3 9 10 9 10 10 7 6 8 14 15 9 4 4 10 7 8 10 16 8 9 19 25 29 9 16 17 14 24 22 14 33 50 34 11 6 5 6 7 4 4 11 -14
3 1 5 9 7 6 12 12 6 3 8 16 8 5 10 12 7 7 8 14 10 9 13 24 28 21 12 14 15 18 27 22 10 31 44 38 17 5 5 5 5 3 8 7
4 3 0 3 9 6 5 11 10 3 0 6 16 10 6 9 11 7 7 14 14 9 12 20 30 24 15 11 11 13 16 32 20 12 39 39 34 21 7 5 4 5 5 6
10 3 0 -0 1 6 5 4 14 11 8 3 6 12 11 9 11 10 8 9 12 14 10 19 28 26 20 18 20 21 22 25 37 12 18 40 41 32 18 7 5 5 4 3
5 10 3 1 1 1 6 4 6 13 9 5 7 8 11 10 9 10 8 7 7 15 9 15 31 26 22 23 27 32 36 25 36 18 9 30 38 36 40 13 6 5 4 4
3 7 10 5 5 0 1 6 4 9 11 7 10 3 12 11 9 9 11 8 5 12 14 12 27 24 22 24 36 48 47 44 34 11 5 27 45 36 33 46 11 5 5 4
2 3 10 7 6 5 3 3 5 4 8 12 6 8 11 8 11 10 9 8 8 3 11 14 16 35 23 11 10 11 12 6 6 26 24 22 28 45 37 29 44 9 4 5
3 2 5 11 7 8 5 2 4 4 6 6 7 10 9 8 12 11 11 8 10 8 4 13 13 29 27 19 13 6 -1 12 3 4 2 3 3 19 53 41 27 40 12 5
5 7 1 4 11 9 7 6 3 5 6 8 6 9 10 8 8 11 10 10 8 10 7 5 13 14 38 25 24 25 21 17 12 -2 7 0 19 5 14 45 53 25 37 16
4 8 7 2 6 8 7 10 4 5 5 8 4 7 9 10 7 7 10 11 8 8 10 6 5 16 14 33 13 9 6 7 4 12 17 19 11 12 10 18 33 63 29 34
5 6 11 6 2 7 6 13 7 4 5 8 5 6 9 10 11 6 7 9 11 10 8 9 7 4 14 17 31 13 8 9 10 9 6 13 13 10 8 16 17 31 55 36
6 5 10 8 2 6 5 12 9 5 5 6 6 5 10 10 11 10 8 7 9 11 10 10 11 8 4 12 19 24 28 5 8 9 5 0 14 12 11 10 16 18 37 42
7 4 12 11 3 6 6 9 9 8 4 7 5 6 6 9 10 11 10 10 8 8 9 11 10 10 9 5 7 16 18 41 23 5 9 8 4 6 12 15 13 16 14 43
9 8 9 8 5 3 8 8 8 7 4 8 5 7 6 8 7 10 8 7 11 9 8 9 11 10 8 10 7 4 9 17 20 45 19 5 3 7 6 5 16 11 19 11
9 13 6 7 5 3 7 9 9 7 6 7 5 8 6 9 7 8 7 8 6 10 11 9 10 11 11 9 10 8 6 5 8 18 28 41 19 5 1 1 1 9 9 19
10 10 9 6 5 2 12 9 8 7 7 8 4 7 7 6 7 8 8 7 7 9 10 11 10 9 9 11 9 10 9 8 6 4 9 20 27 43 19 3 4 2 1 9
13 9 11 8 4 1 12 8 7 7 9 7 4 7 8 8 6 6 8 6 10 9 8 9 10 10 9 10 12 9 8 9 9 8 6 4 12 21 21 40 30 11 1 1
6 8 14 7 3 1 10 6 7 6 6 7 6 7 9 10 7 7 9 9 7 9 8 8 9 9 10 10 9 12 12 11 10 9 9 8 4 4 15 22 16 31 34 20
1 14 10 3 4 8 10 6 4 1 6 5 3 6 9 11 9 8 7 8 8 9 10 9 9 9 9 10 9 11 11 10 9 9 9 11 10 8 3 2 12 27 16 13
Height
5798 5794 5790 5783 5777 5771 5763 5756 5747 5738 5728 5719 5707 5694 5681 5667 5659 5649 5639 5631 5625 5620 5616 5611 5608 5609 5610 5614 5619 5631 5645 5655 5667 5675 5685 5694 5701 5708 5717 5725 5730 5740 5746 5751
5799 5793 5786 5781 5775 5767 5760 5751 5744 5735 5725 5715 5703 5689 5674 5661 5652 5643 5633 5624 5616 5609 5604 5601 5597 5595 5596 5599 5602 5610 5623 5636 5648 5660 5669 5680 5689 5697 5705 5712 5719 5728 5736 5742
5797 5791 5784 5779 5772 5765 5757 5747 5738 5729 5718 5708 5697 5684 5670 5657 5646 5637 5627 5619 5610 5600 5592 5586 5583 5584 5582 5582 5585 5591 5603 5615 5629 5642 5653 5664 5675 5685 5694 5701 5708 5717 5724 5732
5795 5789 5784 5777 5770 5763 5754 5745 5733 5722 5711 5699 5688 5677 5666 5655 5643 5631 5621 5611 5603 5595 5585 5578 5572 5571 5570 5569 5569 5573 5580 5598 5612 5624 5635 5647 5659 5671 5680 5687 5697 5706 5715 5722
5794 5788 5782 5775 5768 5759 5752 5742 5732 5720 5708 5696 5685 5676 5666 5654 5643 5632 5620 5610 5599 5591 5583 5573 5566 5562 5559 5556 5556 5559 5564 5577 5595 5609 5620 5630 5643 5655 5666 5675 5684 5694 5703 5712
5793 5787 5780 5773 5766 5757 5749 5741 5732 5721 5708 5698 5688 5677 5666 5653 5641 5630 5620 5610 5599 5588 5577 5569 5562 5556 5552 5548 5546 5547 5550 5556 5571 5589 5605 5614 5626 5639 5650 5661 5671 5680 5691 5700
5794 5786 5778 5771 5764 5756 5748 5739 5730 5720 5709 5697 5686 5675 5663 5652 5640 5629 5619 5608 5596 5583 5571 5563 5557 5550 5545 5543 5540 5539 5540 5542 5550 5566 5584 5599 5610 5623 5636 5647 5657 5668 5678 5688
5792 5786 5779 5770 5763 5755 5746 5737 5727 5717 5708 5699 5686 5676 5665 5652 5639 5628 5615 5602 5588 5576 5565 5557 5549 5544 5539 5535 5532 5531 5531 5532 5535 5546 5564 5581 5595 5607 5620 5632 5643 5654 5664 5674
5792 5786 5779 5771 5763 5755 5745 5736 5727 5717 5708 5699 5687 5676 5664 5650 5639 5626 5612 5597 5584 5573 5564 5553 5544 5536 5532 5528 5525 5523 5522 5524 5527 5532 5546 5561 5580 5593 5606 5617 5628 5639 5651 5661
5791 5786 5778 5771 5763 5755 5746 5737 5727 5716 5704 5694 5686 5674 5662 5649 5637 5626 5613 5599 5587 5574 5560 5548 5539 5531 5526 5521 5518 5516 5514 5514 5518 5524 5533 5547 5561 5577 5591 5604 5615 5626 5637 5649
5790 5785 5778 5770 5762 5754 5746 5737 5726 5717 5706 5694 5682 5674 5661 5650 5639 5628 5615 5602 5588 5573 5560 5549 5537 5527 5520 5515 5510 5506 5505 5506 5510 5518 5526 5537 5546 5560 5576 5590 5600 5612 5622 5634
5789 5783 5776 5770 5762 5754 5745 5736 5726 5716 5707 5695 5684 5675 5662 5652 5641 5629 5617 5604 5591 5576 5565 5551 5537 5527 5519 5511 5504 5499 5497 5500 5505 5515 5524 5530 5537 5546 5559 5574 5586 5598 5609 5619
5788 5781 5775 5769 5763 5754 5745 5736 5727 5717 5707 5697 5687 5676 5663 5653 5643 5632 5620 5608 5596 5584 5571 5556 5542 5531 5523 5514 5506 5499 5496 5500 5507 5518 5524 5527 5531 5536 5546 5558 5571 5583 5594 5605
5786 5780 5773 5767 5760 5753 5745 5736 5728 5718 5708 5700 5688 5678 5667 5656 5645 5634 5623 5613 5603 5591 5577 5562 5549 5537 5529 5523 5518 5513 5511 5514 5519 5523 5525 5527 5529 5532 5537 5547 5557 5570 5580 5592
5785 5780 5773 5766 5759 5753 5745 5737 5728 5719 5710 5700 5691 5678 5669 5659 5649 5638 5628 5619 5608 5597 5584 5570 5557 5546 5537 5532 5528 5525 5524 5524 5525 5527 5528 5529 5530 5532 5534 5538 5546 5556 5567 5578
5783 5777 5772 5766 5758 5752 5745 5737 5728 5719 5710 5702 5691 5681 5670 5661 5652 5642 5633 5623 5612 5603 5592 5580 5567 5556 5546 5539 5535 5531 5530 5530 5531 5531 5531 5532 5532 5532 5533 5535 5539 5544 5553 5564
5778 5774 5769 5764 5758 5750 5745 5737 5728 5720 5712 5703 5693 5683 5673 5664 5655 5645 5636 5626 5617 5607 5597 5587 5577 5565 5554 5548 5543 5539 5537 5535 5534 5534 5534 5533 5533 5533 5533 5534 5535 5537 5542 5550
5774 5770 5766 5762 5756 5749 5742 5735 5728 5720 5713 5704 5695 5685 5676 5667 5658 5649 5640 5631 5622 5612 5603 5594 5584 5574 5564 5555 5548 5545 5542 5540 5539 5538 5537 5536 5535 5534 5533 5532 5532 5533 5535 5538
5771 5766 5761 5758 5754 5750 5741 5733 5726 5720 5713 5705 5696 5687 5678 5670 5661 5652 5644 5636 5626 5617 5608 5599 5589 5581 5571 5562 5556 5550 5545 5543 5541 5540 5539 5538 5536 5535 5533 5531 5530 5530 5530 5531
5767 5763 5759 5755 5751 5743 5738 5731 5724 5719 5713 5703 5696 5688 5680 5672 5663 5655 5646 5638 5629 5620 5612 5603 5594 5586 5579 5571 5563 5556 5551 5546 5543 5541 5539 5538 5537 5535 5534 5532 5530 5527 5526 5525
5762 5760 5756 5750 5746 5742 5735 5729 5722 5718 5713 5703 5696 5689 5681 5672 5664 5655 5647 5639 5630 5623 5615 5606 5598 5591 5584 5577 5570 5563 5557 5550 5546 5541 5539 5537 5536 5534 5533 5531 5529 5527 5525 5523
5757 5754 5751 5746 5740 5737 5731 5727 5722 5716 5709 5702 5695 5688 5681 5673 5665 5657 5648 5641 5633 5625 5617 5609 5601 5594 5587 5580 5574 5568 5562 5557 5550 5545 5540 5536 5534 5533 5532 5530 5529 5527 5525 5522
5751 5749 5746 5742 5738 5734 5730 5725 5719 5713 5707 5700 5693 5686 5680 5671 5663 5657 5649 5642 5635 5627 5618 5610 5603 5597 5589 5583 5578 5572 5566 5560 5555 5549 5543 5539 5534 5531 5529 5528 5527 5525 5524 5522
5745 5741 5741 5739 5735 5731 5727 5721 5715 5710 5704 5697 5691 5685 5678 5671 5664 5657 5650 5642 5635 5627 5620 5612 5605 5598 5591 5585 5578 5572 5567 5562 5557 5552 5548 5542 5537 5532 5529 5525 5523 5522 5521 5520
5737 5735 5734 5733 5729 5726 5721 5718 5712 5707 5701 5695 5689 5682 5676 5669 5661 5654 5648 5641 5633 5626 5619 5612 5605 5598 5591 5584 5578 5573 5569 5564 5559 5554 5549 5545 5541 5535 5530 5527 5523 5519 5517 5517
5728 5729 5728 5726 5724 5721 5716 5712 5708 5703 5698 5692 5685 5679 5672 5665 5659 5652 5645 5638 5632 5624 5618 5611 5605 5598 5590 5584 5579 5574 5567 5562 5557 5553 5549 5545 5542 5538 5533 5528 5525 5522 5519 5515